www.pogodaiklimat.ru

Погода и климат >> Архив погоды >> Россия >> город Санкт-Петербург >> Санкт-Петербург


АРХИВ ПОГОДЫ в Санкт-Петербурге

Время (UTC), дата Ветер
(напр.,м/с)
 
Видим.   Явления Облачность Т
(С)
Тd
(С)
f
(%)
Тe
(С)
Тes
(С)
Комфортность P
(гПа)
Po
(гПа)
Тmin
(С)
Tmax
(С)
R
(мм)
R24
(мм)
S
(см)
12 13.02 ЮЗ 2 10 км 3/0
[Ac As]
-0.4 -5.6 68 -4 -3 по сезону 1009.9 1009.0
15 13.02 ЮЗ 3 10 км 9/9 300 м
[Sc]
-1.8 -4.6 81 -7 -7 по сезону 1010.9 1010.1
18 13.02 ЮЗ 2 10 км {снег} 8/8 300 м
[Sc]
-0.6 -3.9 78 -4 -4 по сезону 1011.6 1010.7 -0.1 0.0
21 13.02 ЮЗ 3 10 км {снег} 10/10 300 м
[Sc]
-0.4 -3.3 81 -5 -5 по сезону 1012.0 1011.2
00 14.02 ЮЗ 3 10 км {снег} 10/10 300 м
[Sc]
-0.3 -2.6 84 -5 -5 по сезону 1012.2 1011.3
03 14.02 Ю 2 4000 м слаб. ливневой снег 10/10 300 м
[Cb cap]
-0.3 -2.1 88 -4 -4 тепло 1012.7 1011.9 -1.8 0.3
06 14.02 З 2 15 км {ливн. осадки} 10/10 100 м
[St]
+0.7 -0.5 92 -3 -3 тепло 1014.6 1013.8 -0.5 0.8 31
09 14.02 З 2 10 км {морось} 10/10 100 м
[St]
+0.9 -0.1 93 -3 -3 тепло 1017.5 1016.7
12 14.02 З 2 10 км в посл. час морось 10/10 100 м
[St]
+0.9 -0.4 91 -3 -3 по сезону 1018.5 1017.7
15 14.02 З 2 10 км {морось} 10/10 300 м
[Sc diur, vesp]
+0.7 -0.8 90 -3 -3 по сезону 1018.4 1017.6 0.0
18 14.02 ЮЗ 3 10 км {морось} 10/0
[As trans]
+1.0 -1.4 84 -3 -3 тепло 1015.0 1014.2 +1.4 0.0
21 14.02 ЮЗ 4 10 км 10/10 300 м
[Sc diur, vesp]
+2.4 -0.4 82 -2 -2 тепло 1012.6 1011.8
00 15.02 З 3 10 км 10/10 100 м
[St]
+1.8 +0.9 94 -3 -3 тепло 1010.9 1010.1
03 15.02 З 3 10 км 4/4 300 м
[Sc diur, vesp]
+1.8 +0.5 91 -3 -3 тепло 1010.6 1009.8 +0.7 0.0
06 15.02 З 3 10 км 6/0
[Ac As Ci sp]
+2.7 -0.4 80 -1 -1 тепло 1011.0 1010.1 +1.1 28
09 15.02 З 3
{10}
10 км 4/0
[Ci sp]
+4.1 -0.9 70 +1 +2 тепло 1011.1 1010.3
12 15.02 З 4-12
{12}
10 км 4/0
[Ci fib]
+4.6 -1.5 65 +1 +2 тепло 1011.2 1010.4
15 15.02 З 2
{11}
10 км 3/0
[Ci fib]
+3.5 -1.6 69 +1 +1 тепло 1011.2 1010.4
18 15.02 З 2 10 км 3/0
[Ci fib]
+2.8 -0.8 77 -0 -0 тепло 1012.7 1011.8 +4.8
21 15.02 З 1 10 км 6/0
[Ac As]
+2.3 -0.7 81 +1 +1 тепло 1014.1 1013.3
00 16.02 З 2 10 км 8/0
[Cs]
+0.8 -0.5 91 -3 -3 тепло 1014.6 1013.8
03 16.02 З 2 10 км 10/10 100 м
[Sc]
+0.7 -0.2 94 -3 -3 тепло 1013.7 1012.9 +0.1
06 16.02 ЮЗ 2 500 м туман ?/? +1.3 +1.0 98 -2 -2 тепло 1012.0 1011.2 +0.1 28
09 16.02 ЮЗ 3 10 км {туман} 10/10 240 м
[Sc]
+1.5 +0.6 94 -3 -3 тепло 1009.1 1008.3
12 16.02 ЮЗ 3 10 км {туман} 3/0
[Ci fib]
+4.7 -0.3 70 +1 +3 тепло 1005.3 1004.5
15 16.02 ЮЗ 3 10 км 3/0
[Ci fib]
+3.7 -2.1 66 0 0 тепло 1002.5 1001.7
18 16.02 З 2 10 км 8/0
[Ac As Ci fib]
+2.1 -1.4 78 -1 -1 тепло 1000.7 999.9 +6.2
21 16.02 З 4
{13}
10 км 4/0
[Ac trans]
+2.3 -0.7 81 -3 -3 тепло 999.6 998.8
00 17.02 З 4 10 км ясно +1.3 -1.2 83 -4 -4 по сезону 998.5 997.7
03 17.02 З 3
{10}
10 км ясно +0.5 -3.1 77 -4 -4 тепло 999.3 998.5 +0.5
06 17.02 З 5-10
{11}
10 км ясно +0.2 -4.0 73 -6 -5 по сезону 1000.4 999.6 +0.2 27
09 17.02 З 3
{13}
10 км 6/0
[Ac As Cs]
+2.3 -4.1 63 -1 -0 тепло 1002.4 1001.6
12 17.02 СЗ 5-11
{11}
10 км 3/0
[Ci fib]
+4.0 -9.1 38 -0 +1 тепло 1006.0 1005.2
15 17.02 СЗ 4
{14}
10 км ясно +2.2 -10.6 38 -2 -2 тепло 1010.3 1009.5
18 17.02 СЗ 4
{10}
10 км ясно -0.1 -12.1 40 -5 -5 по сезону 1014.8 1013.9 +4.3
21 17.02 С 3 10 км ясно -1.7 -12.1 45 -6 -6 по сезону 1017.5 1016.6
00 18.02 С 2 10 км ясно -3.3 -11.9 51 -7 -7 по сезону 1019.8 1019.0
03 18.02 СЗ 2 10 км ясно -4.6 -11.7 58 -8 -8 по сезону 1021.6 1020.8 -4.7
06 18.02 З 1 10 км ясно -5.8 -11.1 66 -8 -8 по сезону 1023.0 1022.2 -6.4 27
09 18.02 ЮЗ 1 10 км 9/0
[Ac As]
-2.5 -9.4 59 -4 -3 по сезону 1023.9 1023.1
12 18.02 Ю 2 10 км 9/0
[]
-1.2 -10.0 51 -4 -4 по сезону 1022.0 1021.1
15 18.02 Ю 3 10 км 10/0
[As trans]
-0.8 -10.9 46 -5 -5 по сезону 1019.3 1018.5
18 18.02 Ю 3 10 км 10/0 1500 м
[As trans]
-0.2 -11.1 44 -4 -4 по сезону 1015.1 1014.3 -0.4
21 18.02 ЮЗ 4 10 км 9/0
[As trans]
+0.8 -8.1 51 -4 -4 по сезону 1011.1 1010.3
00 19.02 ЮЗ 4 10 км 10/10 300 м
[Sc diur, vesp]
+1.2 -4.0 68 -4 -4 по сезону 1008.4 1007.6
03 19.02 ЮЗ 4 10 км слаб. морось 10/10 300 м
[Sc diur, vesp]
+1.3 -0.4 88 -4 -4 тепло 1006.2 1005.4 -0.7 0.0
06 19.02 ЮЗ 3 10 км в посл. час морось 10/10 300 м
[St]
+2.2 +0.3 87 -2 -2 тепло 1005.2 1004.3 -0.2 0.0 26
09 19.02 ЮЗ 4 10 км 10/10 240 м
[St]
+2.5 +0.9 89 -2 -2 тепло 1004.1 1003.3
12 19.02 ЮЗ 3 10 км 10/10 210 м
[St]
+3.0 +0.9 86 -1 -1 тепло 1001.9 1001.1
15 19.02 Ю 3 10 км 10/10 210 м
[St]
+2.8 +0.9 87 -1 -1 тепло 998.7 997.9
18 19.02 ЮЗ 3
{11}
10 км 10/10 210 м
[St]
+2.7 +0.3 84 -1 -1 тепло 995.0 994.3 +3.1
21 19.02 ЮЗ 4 4000 м слаб. дождь {морось} 10/10 300 м
[Frnb Ns]
+2.3 +0.5 88 -3 -3 тепло 992.3 991.6
00 20.02 ЮЗ 3 10 км слаб. дождь 10/10 300 м
[Sc]
+1.8 +0.4 90 -3 -3 тепло 991.5 990.8
03 20.02 ЮЗ 4 10 км слаб. дождь 10/10 300 м
[Sc]
+2.2 +1.0 92 -3 -3 тепло 990.1 989.4 +1.4 2
06 20.02 ЮЗ 4 10 км слаб. дождь {морось} 10/10 300 м
[Sc diur, vesp]
+2.2 +0.8 90 -3 -3 тепло 989.5 988.8 +1.4 3 24
09 20.02 З 3 10 км слаб. морось {дождь} 10/10 100 м
[St]
+1.7 +0.8 94 -3 -3 тепло 989.7 989.0

 

Местоположение метеостанции Санкт-Петербург (город Санкт-Петербург, Россия): широта 59.97 долгота 30.30 высота над уровнем моря 6 м.

В архиве по умолчанию представлена погода в Санкт-Петербурге за последнюю неделю. Архивные данные за месяц целиком и за предыдущие месяцы, начиная с января 2011 года, Вы можете получить, выбрав интересующий диапазон дат из раскрывающегося списка и нажав кнопку "Ввод!".


*Определитесь, кто Вы:
робот инопланетянин человек

Внимание! Время в таблицах - всемирное. Для получения местного времени необходимо прибавить поправку, которая равна 3 ч.

Смотрите также архив погоды в соседних городах и на ближайших метеорологических станциях:

Погода в Лисьем Носу (город Санкт-Петербург, Россия) (19 км)
Погода в Воейково (город Санкт-Петербург, Россия) (22 км)
Погода в Ломоносове (город Санкт-Петербург, Россия) (29 км)
Погода в Кронштадте (город Санкт-Петербург, Россия) (30 км)
Погода в Шлиссельбурге (Ленинградская область, Россия) (39 км)
Погода в Рощино (Ленинградская область, Россия) (48 км)
Погода в Шепелево (Ленинградская область, Россия) (58 км)
Погода в Сосново (Ленинградская область, Россия) (65 км)
Погода в Сосновом Бору (Ленинградская область, Россия) (65 км)
Погода в Белогорке (Ленинградская область, Россия) (70 км)

Пояснения к столбцам:

Ветер - указаны скорость ветра в м/с - средняя за 10 мин, порывы в срок и между сроками (в фигурных скобках) и направление, откуда дует ветер: С - северный, СВ - северо-восточный, В - восточный, ЮВ - юго-восточный, Ю - южный, ЮЗ - юго-западный, З - западный, СЗ - северо-западный.
Видимость - горизонтальная дальность видимости в метрах или километрах. При видимости от 1 до 10 км при отсутствии осадков обычно наблюдается дымка, при ухудшении видимости до 1 км и менее - туман. В сухую погоду видимость может ухудшаться дымом, пылью или мглою.
Явления - указаны атмосферные явления, наблюдавшиеся в срок или в последний час перед сроком; фигурными скобками обозначены явления, наблюдавшиеся между сроками (за 1-3 часа до срока); квадратными скобками обозначены град или гололедные отложения с указанием их диаметра в мм.
Облачность - указаны через наклонную черту общая и нижняя облачность в баллах и высота нижней границы облаков в метрах; квадратными скобками обозначены формы облаков: Ci - перистые, Cs - перисто-слоистые, Cc - перисто-кучевые, Ac - высококучевые, As - высокослоистые, Sc - слоисто-кучевые, Ns - слоисто-дождевые, Cu - кучевые, Cb - кучево-дождевые. Подробнее классификацию облаков см. в Атласе облаков (PDF).
T - Температура воздуха - температура, измеренная на высоте 2 м над землей.
Td - Температура точки росы - температура, при понижении до которой содержащийся в воздухе водяной пар достигнет насыщения.
f - Относительная влажность воздуха - влажноcть воздуха, измеренная на высоте 2 м над землей.
Te - Эффективная температура - температура, которую ощущает одетый по сезону человек в тени. Характеристика душности погоды. При расчете учитывается влияние влажности воздуха и скорости ветра на теплоощущения человека.
Tes - Эффективная температура на солнце - температура, которую ощущает человек, с поправкой на солнечный нагрев. Характеристика знойности погоды. Зависит от высоты солнца над горизонтом, облачности и скорости ветра. Ночью, в пасмурную погоду, а также при ветре 12 м/с и более поправка равна нулю.
P - Атмосферное давление - приведенное к уровню моря атмосферное давление.
Po - Атмосферное давление - измеренное на уровне метеостанции атмосферное давление.
Tmin - Минимальная температура - минимум температуры воздуха на высоте 2 м над землей.
Tmax - Максимальная температура - максимум температуры воздуха на высоте 2 м над землей.
R - Количество осадков - Количество выпавших осадков за период времени, мм. При наведении курсора мыши на число - период времени, за который выпало указанное количество осадков.
R24 - Количество осадков - Количество выпавших осадков за 24 часа, мм.
S - Снежный покров - Высота снежного покрова, см. При наведении курсора мыши на число - состояние снежного покрова и степень покрытия местности в баллах.